When you browse on this site, cookies collect data to enhance your experience and personalize the content and advertising you see.
Visit our Privacy Policy to learn more. By continuing to use the site, you agree to this use of cookies and data.

Météo par heure à Zapotlán de Juárez

Ce jour, 5 Juillet, Dimanche

Heure Température Précipitation Vent Pression Humidité
00:00 +14°C° 0 mm 1 m/s 576 mmHg 92%
01:00 +14°C° 0 mm 1 m/s 576 mmHg 93%
02:00 +13°C° 0 mm 1 m/s 575 mmHg 93%
03:00 +13°C° 0 mm 1 m/s 575 mmHg 93%
04:00 +12°C° 0 mm 0 m/s 575 mmHg 93%
05:00 +11°C° 0 mm 0 m/s 575 mmHg 93%
06:00 +13°C° 0 mm 0 m/s 576 mmHg 85%
07:00 +15°C° 0 mm 0 m/s 577 mmHg 77%
08:00 +17°C° 0 mm 0 m/s 578 mmHg 69%
09:00 +21°C° 0.3 mm 1 m/s 579 mmHg 64%
10:00 +22°C° 0.3 mm 1 m/s 579 mmHg 59%
11:00 +23°C° 0.3 mm 2 m/s 579 mmHg 54%
12:00 +24°C° 1.2 mm 3 m/s 579 mmHg 54%
13:00 +23°C° 1.2 mm 4 m/s 579 mmHg 54%
14:00 +23°C° 1.2 mm 4 m/s 578 mmHg 54%
15:00 +22°C° 1.6 mm 4 m/s 578 mmHg 60%
16:00 +21°C° 1.6 mm 4 m/s 577 mmHg 66%
17:00 +19°C° 1.6 mm 4 m/s 576 mmHg 71%
18:00 +18°C° 1.1 mm 3 m/s 576 mmHg 76%
19:00 +17°C° 1.1 mm 2 m/s 577 mmHg 80%
20:00 +16°C° 1.1 mm 2 m/s 577 mmHg 84%
21:00 +16°C° 0.2 mm 1 m/s 577 mmHg 83%
22:00 +16°C° 0.2 mm 1 m/s 577 mmHg 83%
23:00 +16°C° 0.2 mm 1 m/s 576 mmHg 82%

Demain, 6 Juillet, Lundi

Heure Température Précipitation Vent Pression Humidité
00:00 +15°C° 0 mm 1 m/s 576 mmHg 83%
01:00 +15°C° 0 mm 1 m/s 575 mmHg 84%
02:00 +13°C° 0 mm 0 m/s 575 mmHg 84%
03:00 +13°C° 0 mm 0 m/s 575 mmHg 85%
04:00 +13°C° 0 mm 0 m/s 575 mmHg 86%
05:00 +13°C° 0 mm 0 m/s 575 mmHg 87%
06:00 +14°C° 0 mm 0 m/s 576 mmHg 80%
07:00 +16°C° 0 mm 0 m/s 577 mmHg 73%
08:00 +17°C° 0 mm 0 m/s 578 mmHg 66%
09:00 +19°C° 0.2 mm 0 m/s 578 mmHg 60%
10:00 +21°C° 0.2 mm 0 m/s 579 mmHg 55%
11:00 +24°C° 0.2 mm 1 m/s 579 mmHg 49%
12:00 +24°C° 1.3 mm 1 m/s 579 mmHg 50%
13:00 +24°C° 1.3 mm 2 m/s 578 mmHg 52%
14:00 +24°C° 1.3 mm 3 m/s 578 mmHg 54%
15:00 +22°C° 1.5 mm 3 m/s 577 mmHg 60%
16:00 +21°C° 1.5 mm 3 m/s 577 mmHg 65%
17:00 +20°C° 1.5 mm 4 m/s 576 mmHg 70%
18:00 +19°C° 1 mm 3 m/s 576 mmHg 75%
19:00 +18°C° 1 mm 2 m/s 577 mmHg 79%
20:00 +17°C° 1 mm 2 m/s 577 mmHg 83%
21:00 +17°C° 0.5 mm 2 m/s 577 mmHg 83%
22:00 +16°C° 0.5 mm 1 m/s 577 mmHg 84%
23:00 +16°C° 0.5 mm 1 m/s 577 mmHg 84%

Après-demain, 7 Juillet, Mardi

Heure Température Précipitation Vent Pression Humidité
00:00 +16°C° 0 mm 1 m/s 576 mmHg 85%
01:00 +15°C° 0 mm 1 m/s 576 mmHg 85%
02:00 +15°C° 0 mm 1 m/s 576 mmHg 86%
03:00 +15°C° 0 mm 1 m/s 576 mmHg 85%
04:00 +14°C° 0 mm 1 m/s 576 mmHg 85%
05:00 +14°C° 0 mm 1 m/s 576 mmHg 85%
06:00 +16°C° 0 mm 1 m/s 577 mmHg 78%
07:00 +18°C° 0 mm 1 m/s 578 mmHg 72%
08:00 +20°C° 0 mm 1 m/s 579 mmHg 65%
09:00 +21°C° 0.5 mm 1 m/s 579 mmHg 60%
10:00 +22°C° 0.5 mm 1 m/s 579 mmHg 55%
11:00 +22°C° 0.5 mm 0 m/s 579 mmHg 49%
12:00 +24°C° 0.9 mm 1 m/s 579 mmHg 50%
13:00 +24°C° 0.9 mm 2 m/s 579 mmHg 51%
14:00 +24°C° 0.9 mm 2 m/s 578 mmHg 52%
15:00 +22°C° 1.7 mm 3 m/s 578 mmHg 57%
16:00 +21°C° 1.7 mm 3 m/s 577 mmHg 62%
17:00 +20°C° 1.7 mm 4 m/s 577 mmHg 67%
18:00 +19°C° 1.3 mm 3 m/s 577 mmHg 73%
19:00 +18°C° 1.3 mm 3 m/s 577 mmHg 78%
20:00 +16°C° 1.3 mm 2 m/s 577 mmHg 84%
21:00 +16°C° 1.6 mm 3 m/s 577 mmHg 84%
22:00 +16°C° 1.6 mm 3 m/s 577 mmHg 84%
23:00 +14°C° 1.6 mm 4 m/s 577 mmHg 84%

8 Juillet, Mercredi

Heure Température Précipitation Vent Pression Humidité
00:00 +14°C° 0.2 mm 3 m/s 576 mmHg 84%
01:00 +15°C° 0.2 mm 2 m/s 576 mmHg 84%
02:00 +15°C° 0.2 mm 2 m/s 576 mmHg 83%
03:00 +15°C° 0 mm 1 m/s 576 mmHg 83%
04:00 +14°C° 0 mm 1 m/s 576 mmHg 83%
05:00 +14°C° 0 mm 1 m/s 576 mmHg 82%
06:00 +16°C° 0 mm 1 m/s 576 mmHg 74%
07:00 +17°C° 0 mm 2 m/s 577 mmHg 66%
08:00 +18°C° 0 mm 2 m/s 578 mmHg 58%
09:00 +20°C° 0 mm 2 m/s 579 mmHg 52%
10:00 +23°C° 0 mm 2 m/s 579 mmHg 47%
11:00 +24°C° 0 mm 2 m/s 580 mmHg 41%
12:00 +25°C° 0.1 mm 2 m/s 579 mmHg 41%
13:00 +25°C° 0.1 mm 3 m/s 579 mmHg 41%
14:00 +25°C° 0.1 mm 3 m/s 578 mmHg 41%
15:00 +24°C° 0.5 mm 3 m/s 578 mmHg 48%
16:00 +21°C° 0.5 mm 3 m/s 577 mmHg 56%
17:00 +20°C° 0.5 mm 3 m/s 576 mmHg 63%
18:00 +19°C° 0.2 mm 3 m/s 576 mmHg 66%
19:00 +18°C° 0.2 mm 3 m/s 577 mmHg 70%
20:00 +17°C° 0.2 mm 4 m/s 577 mmHg 73%
21:00 +17°C° 0 mm 3 m/s 577 mmHg 72%
22:00 +16°C° 0 mm 2 m/s 577 mmHg 72%
23:00 +16°C° 0 mm 2 m/s 577 mmHg 71%

9 Juillet, Jeudi

Heure Température Précipitation Vent Pression Humidité
00:00 +16°C° 0 mm 2 m/s 576 mmHg 71%
01:00 +15°C° 0 mm 1 m/s 576 mmHg 71%
02:00 +15°C° 0 mm 1 m/s 575 mmHg 71%
03:00 +15°C° 0 mm 1 m/s 575 mmHg 71%
04:00 +14°C° 0 mm 1 m/s 575 mmHg 71%
05:00 +14°C° 0 mm 1 m/s 575 mmHg 72%
06:00 +16°C° 0 mm 1 m/s 576 mmHg 67%
07:00 +18°C° 0 mm 1 m/s 577 mmHg 62%
08:00 +20°C° 0 mm 1 m/s 578 mmHg 57%
09:00 +21°C° 0 mm 2 m/s 579 mmHg 51%
10:00 +23°C° 0 mm 2 m/s 579 mmHg 45%
11:00 +25°C° 0 mm 2 m/s 580 mmHg 39%
12:00 +24°C° 0.5 mm 3 m/s 579 mmHg 43%
13:00 +24°C° 0.5 mm 3 m/s 579 mmHg 46%
14:00 +22°C° 0.5 mm 4 m/s 578 mmHg 50%
15:00 +21°C° 2 mm 4 m/s 577 mmHg 58%
16:00 +19°C° 2 mm 3 m/s 577 mmHg 67%
17:00 +17°C° 2 mm 3 m/s 576 mmHg 76%
18:00 +17°C° 1.1 mm 2 m/s 576 mmHg 78%
19:00 +16°C° 1.1 mm 2 m/s 577 mmHg 80%
20:00 +15°C° 1.1 mm 2 m/s 577 mmHg 82%
21:00 +15°C° 0 mm 1 m/s 577 mmHg 83%
22:00 +15°C° 0 mm 1 m/s 577 mmHg 83%
23:00 +13°C° 0 mm 0 m/s 577 mmHg 84%

10 Juillet, Vendredi

Heure Température Précipitation Vent Pression Humidité
00:00 +13°C° 0 mm 0 m/s 577 mmHg 84%
01:00 +13°C° 0 mm 0 m/s 576 mmHg 84%
02:00 +13°C° 0 mm 0 m/s 576 mmHg 84%
03:00 +13°C° 0 mm 0 m/s 576 mmHg 83%
04:00 +12°C° 0 mm 0 m/s 576 mmHg 83%
05:00 +13°C° 0 mm 1 m/s 576 mmHg 82%
06:00 +15°C° 0 mm 1 m/s 577 mmHg 75%
07:00 +16°C° 0 mm 1 m/s 578 mmHg 68%
08:00 +19°C° 0 mm 1 m/s 579 mmHg 60%
09:00 +20°C° 0 mm 2 m/s 580 mmHg 52%
10:00 +22°C° 0 mm 3 m/s 581 mmHg 43%
11:00 +24°C° 0 mm 3 m/s 581 mmHg 35%
12:00 +25°C° 0 mm 4 m/s 581 mmHg 36%
13:00 +25°C° 0 mm 5 m/s 581 mmHg 37%
14:00 +26°C° 0 mm 6 m/s 581 mmHg 37%
15:00 +23°C° 0 mm 6 m/s 580 mmHg 44%
16:00 +22°C° 0 mm 6 m/s 579 mmHg 50%
17:00 +21°C° 0 mm 6 m/s 579 mmHg 57%
18:00 +19°C° 0 mm 5 m/s 579 mmHg 65%
19:00 +17°C° 0 mm 4 m/s 578 mmHg 74%
20:00 +14°C° 0 mm 3 m/s 578 mmHg 82%
21:00 +14°C° 0 mm 3 m/s 578 mmHg 85%
22:00 +14°C° 0 mm 2 m/s 578 mmHg 87%
23:00 +14°C° 0 mm 2 m/s 577 mmHg 90%
Voir plus